This is the latest recevied weather packets stored in our database for station/object XW7RMR. If no packets are shown the sender has not sent any weather packets the latest 10 day(s).
| Time | Temp. | Humidity | Pressure | Rain* | Wind** | Luminosity | Snow |
|---|---|---|---|---|---|---|---|
| 1777684188 | 21.67° C | 56% | 1013.1 hPa | 0 mm | - | 172 W/m² | - |
| 1777683885 | 21.67° C | 56% | 1013 hPa | 0 mm | - | 181 W/m² | - |
| 1777683581 | 21.67° C | 55% | 1013 hPa | 0 mm | - | 214 W/m² | - |
| 1777683279 | 22.22° C | 53% | 1013.1 hPa | 0 mm | - | 230 W/m² | - |
| 1777682978 | 22.22° C | 53% | 1013 hPa | 0 mm | - | 223 W/m² | - |
| 1777682678 | 22.22° C | 53% | 1012.9 hPa | 0 mm | - | 252 W/m² | - |
| 1777682375 | 21.67° C | 55% | 1013 hPa | 0 mm | - | 210 W/m² | - |
| 1777682072 | 22.78° C | 53% | 1013 hPa | 0 mm | - | 259 W/m² | - |
| 1777681768 | 23.33° C | 52% | 1012.8 hPa | 0 mm | - | 264 W/m² | - |
| 1777681466 | 23.33° C | 52% | 1012.9 hPa | 0 mm | - | 296 W/m² | - |
| 1777681163 | 23.33° C | 51% | 1012.9 hPa | 0 mm | - | 319 W/m² | - |
| 1777680861 | 23.33° C | 51% | 1012.9 hPa | 0 mm | - | 320 W/m² | - |
| 1777680558 | 23.89° C | 51% | 1012.8 hPa | 0 mm | - | 327 W/m² | - |
| 1777680257 | 24.44° C | 51% | 1012.8 hPa | 0 mm | - | 446 W/m² | - |
| 1777679952 | 23.33° C | 52% | 1012.9 hPa | 0 mm | - | 430 W/m² | - |
| 1777679648 | 24.44° C | 51% | 1012.8 hPa | 0 mm | - | 426 W/m² | - |
| 1777679343 | 24.44° C | 51% | 1012.8 hPa | 0 mm | - | 457 W/m² | - |
| 1777679040 | 24.44° C | 49% | 1012.9 hPa | 0 mm | - | 472 W/m² | - |
| 1777678739 | 24.44° C | 49% | 1013 hPa | 0 mm | - | 508 W/m² | - |
| 1777678436 | 23.89° C | 50% | 1012.8 hPa | 0 mm | - | 470 W/m² | - |
| 1777678131 | 23.89° C | 49% | 1013.1 hPa | 0 mm | - | 457 W/m² | - |
| 1777677829 | 23.89° C | 49% | 1012.9 hPa | 0 mm | - | 510 W/m² | - |
| 1777677526 | 23.89° C | 50% | 1013 hPa | 0 mm | - | 518 W/m² | - |
| 1777677224 | 23.89° C | 51% | 1013.1 hPa | 0 mm | - | 538 W/m² | - |
| 1777676922 | 22.78° C | 52% | 1013.3 hPa | 0 mm | - | 566 W/m² | - |
* Rain latest hour (hover to see other rain measurements)
** Current wind speed in m/s (hover to see current wind gust speed)